| time (UTC) | temp F | wind direction | speed knots | gust knots | rain 1hr in | rain 24hr in | rain mn in | humidity % | barometer mb |
| 20260903202706 | 62 | 298 | 0.9 | 0.9 | 0.05 | 0.23 | 0.23 | 85 | 1011.0 |
| 20260903202202 | 62 | 277 | 0.9 | 0.9 | 0.05 | 0.23 | 0.23 | 85 | 1010.8 |
| 20260903201701 | 61 | 318 | 0.0 | 0.0 | 0.00 | 0.22 | 0.22 | 87 | 1011.0 |
| 20260903201156 | 61 | 318 | 0.0 | 0.0 | 0.00 | 0.22 | 0.22 | 87 | 1011.0 |
| 20260903200650 | 60 | 311 | 0.0 | 0.0 | 0.00 | 0.22 | 0.22 | 87 | 1011.2 |
| 20260903200146 | 61 | 314 | 0.0 | 0.9 | 0.00 | 0.22 | 0.22 | 86 | 1011.1 |
| 20260903195642 | 61 | 307 | 0.9 | 0.9 | 0.00 | 0.22 | 0.22 | 85 | 1011.1 |
| 20260903195138 | 61 | 290 | 1.7 | 1.7 | 0.00 | 0.22 | 0.22 | 83 | 1011.1 |
| 20260903194637 | 62 | 172 | 0.9 | 1.7 | 0.00 | 0.22 | 0.22 | 83 | 1011.2 |
| 20260903194137 | 62 | 342 | 1.7 | 1.7 | 0.00 | 0.22 | 0.22 | 84 | 1010.9 |
| 20260903193633 | 62 | 286 | 0.0 | 0.9 | 0.00 | 0.22 | 0.22 | 84 | 1010.9 |
| 20260903193129 | 62 | 186 | 1.7 | 1.7 | 0.00 | 0.22 | 0.22 | 84 | 1011.0 |
| 20260903192626 | 61 | 322 | 0.0 | 0.0 | 0.00 | 0.22 | 0.22 | 88 | 1011.2 |
| 20260903192120 | 61 | 325 | 0.0 | 0.0 | 0.00 | 0.22 | 0.22 | 89 | 1011.2 |
| 20260903191616 | 61 | 313 | 0.0 | 0.0 | 0.00 | 0.22 | 0.22 | 89 | 1011.3 |
| 20260903191111 | 60 | 286 | 0.9 | 0.9 | 0.00 | 0.22 | 0.22 | 91 | 1011.3 |
| 20260903190610 | 60 | 305 | 0.0 | 0.9 | 0.00 | 0.22 | 0.22 | 92 | 1011.4 |
| 20260903190105 | 59 | 298 | 0.0 | 0.9 | 0.00 | 0.22 | 0.22 | 93 | 1011.2 |
| 20260903185600 | 59 | 310 | 0.0 | 0.0 | 0.00 | 0.22 | 0.22 | 93 | 1011.5 |
| 20260903185056 | 58 | 269 | 0.9 | 1.7 | 0.00 | 0.22 | 0.22 | 93 | 1011.3 |
| 20260903184552 | 59 | 183 | 1.7 | 1.7 | 0.00 | 0.22 | 0.22 | 92 | 1011.3 |
| 20260903184047 | 60 | 312 | 0.0 | 0.0 | 0.00 | 0.22 | 0.22 | 93 | 1011.5 |
| 20260903183546 | 59 | 204 | 1.7 | 1.7 | 0.07 | 0.22 | 0.22 | 92 | 1011.3 |
| 20260903183041 | 59 | 314 | 0.0 | 0.9 | 0.07 | 0.22 | 0.22 | 92 | 1011.3 |
| 20260903182539 | 59 | 168 | 1.7 | 2.6 | 0.00 | 0.21 | 0.21 | 89 | 1011.3 |
| 20260903182036 | 60 | 314 | 0.9 | 0.9 | 0.00 | 0.21 | 0.21 | 89 | 1011.3 |
| 20260903181534 | 60 | 317 | 0.0 | 0.0 | 0.00 | 0.21 | 0.21 | 90 | 1011.4 |
| 20260903181034 | 61 | 299 | 0.9 | 0.9 | 0.00 | 0.21 | 0.21 | 90 | 1010.9 |
| 20260903180530 | 61 | 312 | 0.0 | 0.0 | 0.00 | 0.21 | 0.21 | 91 | 1011.0 |
| 20260903180029 | 62 | 304 | 0.9 | 0.9 | 0.00 | 0.21 | 0.21 | 90 | 1011.2 |
| 20260903175528 | 62 | 305 | 0.0 | 0.0 | 0.00 | 0.21 | 0.21 | 91 | 1011.0 |
| 20260903175028 | 61 | 307 | 0.0 | 0.0 | 0.00 | 0.21 | 0.21 | 89 | 1011.0 |
| 20260903174523 | 61 | 293 | 0.0 | 0.9 | 0.00 | 0.21 | 0.21 | 92 | 1010.9 |
| 20260903174018 | 60 | 299 | 0.0 | 0.0 | 0.00 | 0.21 | 0.21 | 94 | 1010.8 |
| 20260903173512 | 60 | 311 | 0.0 | 0.0 | 0.00 | 0.21 | 0.21 | 97 | 1010.8 |
| 20260903173009 | 59 | 318 | 0.0 | 0.0 | 0.00 | 0.21 | 0.21 | 98 | 1010.9 |
| 20260903172503 | 59 | 282 | 0.9 | 0.9 | 0.00 | 0.21 | 0.21 | 99 | 1010.8 |
| 20260903171959 | 58 | 23 | 0.9 | 0.9 | 0.00 | 0.21 | 0.21 | 99 | 1011.0 |
| 20260903171454 | 58 | 303 | 0.0 | 0.0 | 0.00 | 0.21 | 0.21 | 99 | 1011.1 |
| 20260903170948 | 58 | 303 | 0.0 | 0.0 | 0.00 | 0.21 | 0.21 | 99 | 1011.2 |
| 20260903170443 | 58 | 303 | 0.0 | 0.0 | 0.00 | 0.21 | 0.21 | 99 | 1011.2 |
| 20260903165942 | 57 | 303 | 0.0 | 0.0 | 0.00 | 0.21 | 0.21 | 99 | 1011.3 |
| 20260903165441 | 57 | 302 | 0.0 | 0.0 | 0.00 | 0.21 | 0.21 | 99 | 1011.3 |
| 20260903164937 | 57 | 319 | 0.0 | 0.0 | 0.00 | 0.21 | 0.21 | 99 | 1011.2 |
| 20260903164432 | 57 | 301 | 0.0 | 0.0 | 0.00 | 0.21 | 0.21 | 99 | 1011.4 |
| 20260903163931 | 56 | 333 | 0.0 | 0.9 | 0.00 | 0.21 | 0.21 | 99 | 1011.4 |
| 20260903163427 | 58 | 321 | 0.0 | 0.0 | 0.00 | 0.21 | 0.21 | 99 | 1011.3 |
| 20260903162923 | 58 | 321 | 0.0 | 0.0 | 0.00 | 0.21 | 0.21 | 99 | 1011.4 |
| 20260903162420 | 57 | 319 | 0.0 | 0.0 | 0.00 | 0.21 | 0.21 | 99 | 1011.4 |
| 20260903161915 | 56 | 318 | 0.0 | 0.0 | 0.00 | 0.21 | 0.21 | 99 | 1011.4 |
| 20260903161410 | 56 | 318 | 0.0 | 0.0 | 0.00 | 0.21 | 0.21 | 99 | 1011.2 |
| 20260903160906 | 55 | 317 | 0.0 | 0.0 | 0.00 | 0.21 | 0.21 | 99 | 1011.2 |
| 20260903160405 | 55 | 317 | 0.0 | 0.0 | 0.00 | 0.21 | 0.21 | 99 | 1011.2 |
| 20260903155904 | 55 | 321 | 0.0 | 0.0 | 0.00 | 0.21 | 0.21 | 99 | 1011.4 |
| 20260903155359 | 55 | 321 | 0.0 | 0.0 | 0.05 | 0.21 | 0.21 | 99 | 1011.3 |
| 20260903154855 | 55 | 327 | 0.0 | 0.0 | 0.24 | 0.21 | 0.21 | 99 | 1011.2 |
| 20260903154351 | 55 | 326 | 0.0 | 0.0 | 0.26 | 0.20 | 0.20 | 99 | 1011.7 |
| 20260903153851 | 55 | 298 | 0.0 | 0.0 | 0.12 | 0.17 | 0.17 | 99 | 1011.3 |
| 20260903153346 | 55 | 300 | 0.0 | 0.0 | 0.12 | 0.16 | 0.16 | 99 | 1011.6 |
| 20260903152843 | 55 | 300 | 0.0 | 0.9 | 0.07 | 0.15 | 0.15 | 99 | 1011.5 |
| 20260903152338 | 55 | 301 | 0.0 | 0.0 | 0.07 | 0.15 | 0.15 | 99 | 1011.4 |
| 20260903151833 | 54 | 316 | 0.0 | 0.0 | 0.00 | 0.14 | 0.14 | 99 | 1011.5 |
| 20260903151329 | 54 | 319 | 0.0 | 0.0 | 0.05 | 0.14 | 0.14 | 99 | 1011.3 |
| 20260903150828 | 54 | 305 | 0.0 | 0.0 | 0.05 | 0.14 | 0.14 | 99 | 1011.4 |
| 20260903150324 | 54 | 294 | 0.0 | 0.0 | 0.00 | 0.13 | 0.13 | 99 | 1011.3 |
| 20260903145818 | 54 | 303 | 0.0 | 0.0 | 0.07 | 0.13 | 0.13 | 99 | 1011.2 |
| 20260903145313 | 54 | 308 | 0.0 | 0.0 | 0.07 | 0.13 | 0.13 | 99 | 1011.1 |
| 20260903144813 | 54 | 322 | 0.0 | 0.9 | 0.00 | 0.12 | 0.12 | 99 | 1011.2 |
| 20260903144308 | 54 | 295 | 0.0 | 0.0 | 0.05 | 0.12 | 0.12 | 99 | 1011.1 |
| 20260903143803 | 54 | 314 | 0.0 | 0.0 | 0.05 | 0.12 | 0.12 | 99 | 1011.3 |
| 20260903143300 | 54 | 323 | 0.0 | 0.0 | 0.00 | 0.11 | 0.11 | 99 | 1011.4 |
| 20260903142755 | 54 | 300 | 0.0 | 0.9 | 0.07 | 0.11 | 0.11 | 99 | 1011.4 |
| 20260903142251 | 54 | 302 | 0.0 | 0.0 | 0.07 | 0.11 | 0.11 | 99 | 1011.1 |
| 20260903141747 | 54 | 72 | 0.9 | 1.7 | 0.05 | 0.10 | 0.10 | 99 | 1010.9 |
| 20260903141242 | 53 | 312 | 0.0 | 0.0 | 0.05 | 0.10 | 0.10 | 99 | 1010.8 |
| 20260903140737 | 53 | 313 | 0.0 | 0.0 | 0.00 | 0.09 | 0.09 | 99 | 1010.9 |
| 20260903140232 | 53 | 313 | 0.0 | 0.0 | 0.00 | 0.09 | 0.09 | 99 | 1010.8 |
| 20260903135728 | 53 | 313 | 0.0 | 0.0 | 0.00 | 0.09 | 0.09 | 99 | 1010.8 |
| 20260903135223 | 53 | 313 | 0.0 | 0.0 | 0.00 | 0.09 | 0.09 | 99 | 1010.8 |
| 20260903134721 | 53 | 313 | 0.0 | 0.0 | 0.07 | 0.09 | 0.09 | 99 | 1010.8 |
| 20260903134218 | 53 | 313 | 0.0 | 0.0 | 0.07 | 0.09 | 0.09 | 99 | 1010.6 |
| 20260903133715 | 53 | 310 | 0.0 | 0.0 | 0.12 | 0.09 | 0.09 | 99 | 1010.6 |
| 20260903133212 | 53 | 310 | 0.0 | 0.0 | 0.12 | 0.08 | 0.08 | 99 | 1010.7 |
| 20260903132711 | 53 | 302 | 0.0 | 0.0 | 0.14 | 0.07 | 0.07 | 99 | 1010.6 |
| 20260903132206 | 53 | 301 | 0.0 | 0.0 | 0.07 | 0.06 | 0.06 | 99 | 1010.6 |
| 20260903131701 | 53 | 301 | 0.0 | 0.0 | 0.00 | 0.05 | 0.05 | 99 | 1010.4 |
| 20260903131201 | 53 | 301 | 0.0 | 0.0 | 0.05 | 0.05 | 0.05 | 99 | 1010.5 |
| 20260903130656 | 53 | 212 | 1.7 | 1.7 | 0.05 | 0.05 | 0.05 | 99 | 1010.4 |
| 20260903130150 | 53 | 316 | 0.0 | 0.0 | 0.00 | 0.04 | 0.04 | 99 | 1010.6 |
| 20260903125648 | 53 | 315 | 0.0 | 0.0 | 0.00 | 0.04 | 0.04 | 99 | 1010.5 |
| 20260903125144 | 53 | 313 | 0.0 | 0.0 | 0.00 | 0.04 | 0.04 | 99 | 1010.4 |
| 20260903124638 | 53 | 296 | 0.0 | 0.0 | 0.00 | 0.04 | 0.04 | 99 | 1010.5 |
| 20260903124137 | 53 | 297 | 0.0 | 0.0 | 0.00 | 0.04 | 0.04 | 99 | 1010.6 |
| 20260903123637 | 53 | 302 | 0.0 | 0.0 | 0.00 | 0.04 | 0.04 | 99 | 1010.4 |
| 20260903123136 | 53 | 307 | 0.0 | 0.0 | 0.00 | 0.04 | 0.04 | 99 | 1010.6 |
| 20260903122631 | 53 | 318 | 0.0 | 0.0 | 0.00 | 0.04 | 0.04 | 99 | 1010.6 |
| 20260903122130 | 52 | 310 | 0.0 | 0.0 | 0.00 | 0.04 | 0.04 | 99 | 1010.6 |
| 20260903121629 | 52 | 317 | 0.0 | 0.0 | 0.00 | 0.04 | 0.04 | 99 | 1010.5 |
| 20260903121126 | 52 | 317 | 0.0 | 0.0 | 0.00 | 0.04 | 0.04 | 99 | 1010.4 |
| 20260903120624 | 52 | 306 | 0.0 | 0.0 | 0.00 | 0.04 | 0.04 | 99 | 1010.5 |
| 20260903120119 | 52 | 307 | 0.0 | 0.0 | 0.00 | 0.04 | 0.04 | 99 | 1010.6 |
| 20260903115617 | 52 | 307 | 0.0 | 0.0 | 0.00 | 0.04 | 0.04 | 99 | 1010.7 |
| 20260903115113 | 52 | 295 | 0.0 | 0.9 | 0.00 | 0.04 | 0.04 | 99 | 1010.9 |
| 20260903114608 | 52 | 295 | 0.0 | 0.0 | 0.00 | 0.04 | 0.04 | 99 | 1010.6 |
| 20260903114103 | 52 | 296 | 0.0 | 0.0 | 0.00 | 0.04 | 0.04 | 99 | 1010.7 |
| 20260903113559 | 52 | 296 | 0.0 | 0.0 | 0.00 | 0.04 | 0.04 | 99 | 1010.7 |
| 20260903113055 | 52 | 296 | 0.0 | 0.9 | 0.00 | 0.04 | 0.04 | 99 | 1010.6 |
| 20260903112551 | 53 | 297 | 0.0 | 0.0 | 0.00 | 0.04 | 0.04 | 99 | 1010.7 |
| 20260903112050 | 53 | 299 | 0.0 | 0.0 | 0.00 | 0.04 | 0.04 | 99 | 1010.8 |
| 20260903111549 | 53 | 304 | 0.0 | 0.0 | 0.00 | 0.04 | 0.04 | 99 | 1010.7 |
| 20260903111045 | 53 | 304 | 0.0 | 0.0 | 0.00 | 0.04 | 0.04 | 99 | 1010.6 |
| 20260903110541 | 53 | 305 | 0.0 | 0.0 | 0.00 | 0.04 | 0.04 | 99 | 1010.9 |
| 20260903110036 | 53 | 299 | 0.0 | 0.0 | 0.00 | 0.04 | 0.04 | 99 | 1010.8 |
| 20260903105531 | 53 | 305 | 0.0 | 0.0 | 0.00 | 0.04 | 0.04 | 99 | 1010.7 |
| 20260903105025 | 53 | 307 | 0.0 | 0.0 | 0.00 | 0.04 | 0.04 | 99 | 1010.8 |
| 20260903104520 | 53 | 284 | 0.9 | 0.9 | 0.00 | 0.04 | 0.04 | 99 | 1010.8 |
| 20260903104016 | 53 | 305 | 0.0 | 0.0 | 0.00 | 0.04 | 0.04 | 99 | 1010.7 |
| 20260903103512 | 53 | 305 | 0.0 | 0.0 | 0.00 | 0.04 | 0.04 | 99 | 1010.8 |
| 20260903103008 | 54 | 301 | 0.9 | 0.9 | 0.00 | 0.04 | 0.04 | 99 | 1011.0 |
| 20260903102503 | 54 | 299 | 0.9 | 0.9 | 0.00 | 0.04 | 0.04 | 99 | 1010.9 |
| 20260903102002 | 54 | 286 | 0.9 | 0.9 | 0.00 | 0.04 | 0.04 | 99 | 1010.7 |
| 20260903101456 | 54 | 300 | 0.0 | 0.0 | 0.00 | 0.04 | 0.04 | 99 | 1010.6 |
| 20260903100952 | 54 | 303 | 0.0 | 0.0 | 0.00 | 0.04 | 0.04 | 99 | 1010.4 |
| 20260903100447 | 54 | 307 | 0.0 | 0.0 | 0.00 | 0.04 | 0.04 | 99 | 1010.5 |
| 20260903095943 | 54 | 318 | 0.0 | 0.0 | 0.07 | 0.04 | 0.04 | 99 | 1010.5 |
| 20260903095438 | 54 | 306 | 0.0 | 0.0 | 0.07 | 0.04 | 0.04 | 99 | 1010.5 |
| 20260903094934 | 54 | 301 | 0.0 | 0.0 | 0.00 | 0.03 | 0.03 | 99 | 1010.6 |
| 20260903094432 | 54 | 242 | 0.9 | 0.9 | 0.00 | 0.03 | 0.03 | 99 | 1010.4 |
| 20260903093929 | 54 | 304 | 0.0 | 0.0 | 0.00 | 0.03 | 0.03 | 99 | 1010.2 |
| 20260903093424 | 55 | 276 | 0.9 | 1.7 | 0.00 | 0.03 | 0.03 | 99 | 1010.6 |
| 20260903092919 | 55 | 296 | 0.0 | 0.0 | 0.00 | 0.03 | 0.03 | 99 | 1010.6 |
| 20260903092414 | 55 | 291 | 0.0 | 0.0 | 0.00 | 0.03 | 0.03 | 99 | 1010.6 |
| 20260903091912 | 55 | 298 | 0.0 | 0.0 | 0.00 | 0.03 | 0.03 | 99 | 1010.4 |
| 20260903091411 | 55 | 295 | 0.0 | 0.0 | 0.00 | 0.03 | 0.03 | 99 | 1010.6 |
| 20260903090906 | 55 | 308 | 0.0 | 0.0 | 0.00 | 0.03 | 0.03 | 99 | 1010.7 |
| 20260903090402 | 55 | 307 | 0.0 | 0.0 | 0.00 | 0.03 | 0.03 | 99 | 1010.7 |
| 20260903085900 | 55 | 311 | 0.0 | 0.0 | 0.00 | 0.03 | 0.03 | 99 | 1010.6 |
| 20260903085359 | 55 | 302 | 0.0 | 0.0 | 0.00 | 0.03 | 0.03 | 99 | 1010.6 |
| 20260903084859 | 55 | 302 | 0.0 | 0.0 | 0.00 | 0.03 | 0.03 | 99 | 1011.0 |
| 20260903084357 | 55 | 303 | 0.0 | 0.0 | 0.00 | 0.03 | 0.03 | 99 | 1010.8 |
| 20260903083853 | 55 | 304 | 0.0 | 0.0 | 0.00 | 0.03 | 0.03 | 99 | 1010.7 |
| 20260903083349 | 55 | 303 | 0.0 | 0.0 | 0.00 | 0.03 | 0.03 | 99 | 1010.9 |
| 20260903082847 | 55 | 298 | 0.0 | 0.0 | 0.00 | 0.03 | 0.03 | 99 | 1010.9 |
| 20260903082342 | 55 | 301 | 0.0 | 0.0 | 0.05 | 0.03 | 0.03 | 99 | 1010.8 |
| 20260903081838 | 55 | 295 | 0.9 | 0.9 | 0.05 | 0.03 | 0.03 | 99 | 1010.9 |
| 20260903081333 | 55 | 304 | 0.0 | 0.0 | 0.00 | 0.02 | 0.02 | 99 | 1011.0 |
| 20260903080830 | 55 | 305 | 0.0 | 0.0 | 0.00 | 0.02 | 0.02 | 99 | 1011.0 |
| 20260903080327 | 55 | 306 | 0.0 | 0.0 | 0.00 | 0.02 | 0.02 | 99 | 1011.0 |
| 20260903075826 | 55 | 307 | 0.0 | 0.0 | 0.00 | 0.02 | 0.02 | 99 | 1011.3 |
| 20260903075321 | 55 | 330 | 0.0 | 0.0 | 0.00 | 0.02 | 0.02 | 99 | 1010.9 |
| 20260903074821 | 55 | 304 | 0.0 | 0.0 | 0.00 | 0.02 | 0.02 | 99 | 1010.8 |
| 20260903074315 | 55 | 291 | 0.9 | 0.9 | 0.07 | 0.02 | 0.02 | 99 | 1011.0 |
| 20260903073811 | 55 | 306 | 0.0 | 0.0 | 0.12 | 0.02 | 0.02 | 99 | 1011.0 |
| 20260903073306 | 55 | 304 | 0.0 | 0.0 | 0.05 | 0.01 | 0.01 | 99 | 1011.0 |
| 20260903072802 | 55 | 303 | 0.0 | 0.9 | 0.00 | 0.00 | 0.00 | 99 | 1010.8 |
| 20260903072258 | 55 | 303 | 0.0 | 0.0 | 0.00 | 0.00 | 0.00 | 99 | 1011.0 |
| 20260903071754 | 55 | 297 | 0.9 | 0.9 | 0.00 | 0.00 | 0.00 | 99 | 1010.9 |
| 20260903071250 | 55 | 199 | 0.9 | 0.9 | 0.00 | 0.00 | 0.00 | 99 | 1010.9 |
| 20260903070744 | 55 | 309 | 0.0 | 0.0 | 0.00 | 0.00 | 0.00 | 99 | 1010.7 |
| 20260903070240 | 55 | 298 | 0.0 | 0.0 | 0.00 | 0.00 | 0.00 | 99 | 1010.8 |
| 20260903065735 | 55 | 284 | 0.0 | 0.9 | 0.00 | 0.37 | 0.37 | 99 | 1010.9 |
| 20260903065234 | 55 | 304 | 0.0 | 0.0 | 0.00 | 0.37 | 0.37 | 99 | 1010.6 |
| 20260903064733 | 55 | 294 | 0.0 | 0.9 | 0.00 | 0.37 | 0.37 | 99 | 1010.7 |
| 20260903064228 | 55 | 299 | 0.0 | 0.0 | 0.00 | 0.37 | 0.37 | 99 | 1010.8 |
| 20260903063725 | 55 | 272 | 0.9 | 0.9 | 0.00 | 0.37 | 0.37 | 99 | 1010.7 |
| 20260903063219 | 55 | 306 | 0.0 | 0.0 | 0.00 | 0.37 | 0.37 | 99 | 1010.7 |
| 20260903062715 | 55 | 309 | 0.0 | 0.0 | 0.00 | 0.37 | 0.37 | 99 | 1010.8 |
| 20260903062215 | 55 | 313 | 0.0 | 0.0 | 0.00 | 0.37 | 0.37 | 99 | 1010.8 |
| 20260903061712 | 55 | 305 | 0.0 | 0.0 | 0.00 | 0.37 | 0.37 | 99 | 1011.0 |
| 20260903061209 | 55 | 307 | 0.0 | 0.0 | 0.00 | 0.37 | 0.37 | 99 | 1010.8 |
| 20260903060706 | 55 | 304 | 0.0 | 0.0 | 0.00 | 0.37 | 0.37 | 99 | 1010.9 |
| 20260903060200 | 55 | 302 | 0.0 | 0.0 | 0.00 | 0.37 | 0.37 | 99 | 1010.8 |
| 20260903055658 | 55 | 238 | 0.0 | 0.9 | 0.00 | 0.37 | 0.37 | 99 | 1010.6 |
| 20260903055156 | 55 | 298 | 0.0 | 0.9 | 0.00 | 0.37 | 0.37 | 99 | 1010.7 |
| 20260903054651 | 55 | 266 | 0.0 | 0.9 | 0.00 | 0.37 | 0.37 | 99 | 1010.7 |
| 20260903054147 | 55 | 300 | 0.0 | 0.0 | 0.00 | 0.37 | 0.37 | 99 | 1010.8 |
| 20260903053643 | 56 | 262 | 0.9 | 0.9 | 0.00 | 0.37 | 0.37 | 99 | 1011.0 |
| 20260903053138 | 56 | 308 | 0.0 | 0.0 | 0.00 | 0.37 | 0.37 | 99 | 1010.9 |
| 20260903052634 | 56 | 300 | 0.0 | 0.0 | 0.00 | 0.37 | 0.37 | 99 | 1010.7 |
| 20260903052129 | 56 | 301 | 0.0 | 0.0 | 0.00 | 0.37 | 0.37 | 99 | 1011.0 |
| 20260903051624 | 56 | 301 | 0.0 | 0.0 | 0.00 | 0.37 | 0.37 | 99 | 1010.8 |
| 20260903051120 | 56 | 309 | 0.0 | 0.0 | 0.00 | 0.37 | 0.37 | 99 | 1010.7 |
| 20260903050620 | 56 | 291 | 0.0 | 0.0 | 0.00 | 0.37 | 0.37 | 99 | 1010.8 |
| 20260903050115 | 55 | 234 | 0.0 | 0.9 | 0.00 | 0.37 | 0.37 | 99 | 1010.7 |
| 20260903045614 | 55 | 306 | 0.0 | 0.0 | 0.00 | 0.37 | 0.37 | 99 | 1010.7 |
| 20260903045110 | 55 | 306 | 0.0 | 0.0 | 0.00 | 0.37 | 0.37 | 99 | 1010.8 |
| 20260903044606 | 55 | 300 | 0.0 | 0.0 | 0.00 | 0.37 | 0.37 | 99 | 1010.8 |
| 20260903044102 | 56 | 302 | 0.0 | 0.0 | 0.00 | 0.37 | 0.37 | 99 | 1010.6 |
| 20260903043557 | 56 | 301 | 0.0 | 0.0 | 0.00 | 0.37 | 0.37 | 99 | 1010.7 |
| 20260903043057 | 56 | 304 | 0.0 | 0.0 | 0.00 | 0.37 | 0.37 | 99 | 1010.8 |
| 20260903042551 | 56 | 311 | 0.0 | 0.0 | 0.00 | 0.37 | 0.37 | 99 | 1010.6 |
| 20260903042047 | 56 | 310 | 0.0 | 0.0 | 0.00 | 0.37 | 0.37 | 99 | 1010.4 |
| 20260903041544 | 56 | 300 | 0.0 | 0.0 | 0.00 | 0.37 | 0.37 | 99 | 1010.4 |
| 20260903041038 | 56 | 320 | 0.0 | 0.0 | 0.00 | 0.37 | 0.37 | 99 | 1010.4 |
| 20260903040537 | 57 | 322 | 0.0 | 0.0 | 0.00 | 0.37 | 0.37 | 99 | 1010.3 |
| 20260903040034 | 57 | 302 | 0.0 | 0.0 | 0.00 | 0.37 | 0.37 | 99 | 1010.2 |
| 20260903035529 | 57 | 303 | 0.0 | 0.0 | 0.00 | 0.37 | 0.37 | 99 | 1010.3 |
| 20260903035025 | 57 | 303 | 0.0 | 0.0 | 0.00 | 0.37 | 0.37 | 99 | 1010.1 |
| 20260903034525 | 57 | 304 | 0.0 | 0.0 | 0.00 | 0.37 | 0.37 | 99 | 1009.9 |
| 20260903034020 | 57 | 304 | 0.0 | 0.0 | 0.00 | 0.37 | 0.37 | 99 | 1009.7 |
| 20260903033515 | 57 | 318 | 0.0 | 0.0 | 0.00 | 0.37 | 0.37 | 99 | 1009.7 |
| 20260903033011 | 57 | 307 | 0.0 | 0.0 | 0.00 | 0.37 | 0.37 | 99 | 1009.9 |
| 20260903032506 | 57 | 315 | 0.0 | 0.0 | 0.00 | 0.37 | 0.37 | 99 | 1009.8 |
| 20260903032001 | 58 | 310 | 0.0 | 0.0 | 0.00 | 0.37 | 0.37 | 99 | 1009.6 |
| 20260903031501 | 58 | 293 | 0.0 | 0.9 | 0.00 | 0.37 | 0.37 | 99 | 1009.6 |
| 20260903030956 | 58 | 307 | 0.0 | 0.0 | 0.00 | 0.37 | 0.37 | 99 | 1009.5 |
| 20260903030452 | 58 | 300 | 0.0 | 0.0 | 0.07 | 0.37 | 0.37 | 99 | 1009.5 |
| 20260903025947 | 58 | 225 | 0.9 | 1.7 | 0.07 | 0.37 | 0.37 | 99 | 1009.7 |
| 20260903025443 | 58 | 301 | 0.0 | 0.0 | 0.00 | 0.36 | 0.36 | 99 | 1009.6 |
| 20260903024938 | 58 | 301 | 0.9 | 0.9 | 0.00 | 0.36 | 0.36 | 99 | 1009.7 |
| 20260903024437 | 58 | 301 | 0.0 | 0.0 | 0.00 | 0.36 | 0.36 | 99 | 1009.4 |
| 20260903023932 | 59 | 305 | 0.0 | 0.0 | 0.00 | 0.36 | 0.36 | 99 | 1009.2 |
| 20260903023428 | 59 | 297 | 0.0 | 0.0 | 0.00 | 0.36 | 0.36 | 99 | 1009.1 |
| 20260903022923 | 59 | 268 | 0.9 | 1.7 | 0.00 | 0.36 | 0.36 | 99 | 1009.1 |
| 20260903022422 | 59 | 287 | 0.0 | 0.0 | 0.00 | 0.36 | 0.36 | 99 | 1009.2 |
| 20260903021920 | 59 | 291 | 0.0 | 0.9 | 0.00 | 0.36 | 0.36 | 99 | 1009.2 |
| 20260903021417 | 59 | 285 | 0.0 | 0.0 | 0.00 | 0.36 | 0.36 | 99 | 1009.3 |
| 20260903020916 | 59 | 281 | 0.9 | 0.9 | 0.00 | 0.36 | 0.36 | 99 | 1009.1 |
| 20260903020412 | 59 | 310 | 0.0 | 0.9 | 0.05 | 0.36 | 0.36 | 99 | 1009.1 |
| 20260903015907 | 59 | 302 | 0.0 | 0.0 | 0.05 | 0.36 | 0.36 | 99 | 1008.8 |
| 20260903015403 | 59 | 288 | 0.9 | 0.9 | 0.00 | 0.35 | 0.35 | 99 | 1008.9 |
| 20260903014858 | 59 | 287 | 0.0 | 0.0 | 0.00 | 0.35 | 0.35 | 99 | 1008.7 |
| 20260903014357 | 59 | 280 | 0.9 | 0.9 | 0.00 | 0.35 | 0.35 | 99 | 1008.8 |
| 20260903013852 | 59 | 300 | 0.0 | 0.0 | 0.00 | 0.35 | 0.35 | 99 | 1008.9 |
| 20260903013352 | 59 | 287 | 0.9 | 0.9 | 0.00 | 0.35 | 0.35 | 99 | 1008.9 |
| 20260903012851 | 59 | 301 | 0.9 | 0.9 | 0.00 | 0.35 | 0.35 | 99 | 1008.9 |
| 20260903012351 | 59 | 297 | 0.0 | 0.9 | 0.00 | 0.35 | 0.35 | 99 | 1008.8 |
| 20260903011849 | 59 | 299 | 0.0 | 0.0 | 0.00 | 0.35 | 0.35 | 99 | 1008.6 |
| 20260903011344 | 59 | 284 | 0.0 | 0.0 | 0.00 | 0.35 | 0.35 | 99 | 1008.5 |
| 20260903010840 | 59 | 232 | 0.9 | 0.9 | 0.00 | 0.35 | 0.35 | 99 | 1008.8 |
| 20260903010335 | 59 | 302 | 0.0 | 0.0 | 0.00 | 0.35 | 0.35 | 99 | 1008.6 |
| 20260903005833 | 59 | 274 | 0.9 | 0.9 | 0.00 | 0.35 | 0.35 | 99 | 1008.7 |
| 20260903005329 | 60 | 326 | 0.0 | 0.0 | 0.00 | 0.35 | 0.35 | 99 | 1008.5 |
| 20260903004824 | 59 | 321 | 0.0 | 0.0 | 0.07 | 0.35 | 0.35 | 99 | 1008.5 |
| 20260903004320 | 59 | 290 | 0.0 | 0.9 | 0.07 | 0.35 | 0.35 | 99 | 1008.5 |
| 20260903003816 | 59 | 307 | 0.0 | 0.0 | 0.00 | 0.34 | 0.34 | 99 | 1008.5 |
| 20260903003310 | 59 | 297 | 0.9 | 0.9 | 0.05 | 0.34 | 0.34 | 99 | 1008.2 |
| 20260903002810 | 59 | 346 | 0.9 | 0.9 | 0.05 | 0.34 | 0.34 | 99 | 1008.3 |
| 20260903002309 | 60 | 309 | 0.0 | 0.0 | 0.05 | 0.34 | 0.34 | 99 | 1008.3 |
| 20260903001804 | 60 | 303 | 0.0 | 0.0 | 0.00 | 0.33 | 0.33 | 99 | 1008.6 |
| 20260903001259 | 59 | 304 | 0.0 | 0.0 | 0.00 | 0.33 | 0.33 | 99 | 1008.1 |
| 20260903000754 | 59 | 300 | 0.9 | 0.9 | 0.00 | 0.33 | 0.33 | 99 | 1008.2 |
| 20260903000249 | 59 | 294 | 0.0 | 0.9 | 0.00 | 0.33 | 0.33 | 99 | 1008.3 |
| 20260902235747 | 59 | 303 | 0.0 | 0.0 | 0.00 | 0.33 | 0.33 | 99 | 1008.3 |
| 20260902235243 | 59 | 318 | 0.0 | 0.0 | 0.00 | 0.33 | 0.33 | 99 | 1008.2 |
| 20260902234742 | 59 | 316 | 0.0 | 0.9 | 0.00 | 0.33 | 0.33 | 99 | 1008.2 |
| 20260902234242 | 59 | 301 | 0.0 | 0.0 | 0.00 | 0.33 | 0.33 | 99 | 1008.2 |
| 20260902233742 | 59 | 308 | 0.9 | 0.9 | 0.00 | 0.33 | 0.33 | 99 | 1008.3 |
| 20260902233236 | 59 | 315 | 0.0 | 0.0 | 0.00 | 0.33 | 0.33 | 99 | 1008.0 |
| 20260902232735 | 59 | 307 | 0.0 | 0.0 | 0.00 | 0.33 | 0.33 | 99 | 1008.1 |
| 20260902232235 | 59 | 287 | 0.0 | 0.9 | 0.00 | 0.33 | 0.33 | 99 | 1008.3 |
| 20260902231734 | 59 | 313 | 0.0 | 0.0 | 0.00 | 0.33 | 0.33 | 99 | 1007.9 |
| 20260902231230 | 59 | 301 | 0.0 | 0.9 | 0.07 | 0.33 | 0.33 | 99 | 1007.9 |
| 20260902230724 | 59 | 300 | 0.0 | 0.9 | 0.07 | 0.33 | 0.33 | 99 | 1007.9 |
| 20260902230223 | 59 | 307 | 0.0 | 0.9 | 0.00 | 0.32 | 0.32 | 99 | 1008.0 |
| 20260902225718 | 59 | 306 | 0.0 | 0.0 | 0.00 | 0.32 | 0.32 | 99 | 1007.8 |
| 20260902225218 | 59 | 310 | 0.0 | 0.0 | 0.00 | 0.32 | 0.32 | 99 | 1007.8 |
| 20260902224717 | 59 | 310 | 0.0 | 0.9 | 0.00 | 0.32 | 0.32 | 99 | 1007.8 |
| 20260902224212 | 59 | 302 | 0.0 | 0.9 | 0.00 | 0.32 | 0.32 | 99 | 1007.5 |
| 20260902223708 | 59 | 287 | 0.9 | 1.7 | 0.00 | 0.32 | 0.32 | 99 | 1007.6 |
| 20260902223208 | 59 | 303 | 0.0 | 0.0 | 0.00 | 0.32 | 0.32 | 99 | 1007.6 |
| 20260902222707 | 59 | 297 | 0.0 | 0.0 | 0.00 | 0.32 | 0.32 | 99 | 1007.6 |
| 20260902222201 | 59 | 227 | 0.9 | 1.7 | 0.00 | 0.32 | 0.32 | 99 | 1007.7 |
| 20260902221655 | 59 | 305 | 0.0 | 0.0 | 0.00 | 0.32 | 0.32 | 99 | 1007.8 |
| 20260902221154 | 59 | 313 | 0.0 | 0.0 | 0.00 | 0.32 | 0.32 | 99 | 1007.7 |
| 20260902220650 | 59 | 270 | 0.0 | 0.9 | 0.00 | 0.32 | 0.32 | 99 | 1007.8 |
| 20260902220145 | 59 | 135 | 1.7 | 4.3 | 0.00 | 0.32 | 0.32 | 99 | 1007.6 |
| 20260902215641 | 59 | 195 | 0.0 | 1.7 | 0.00 | 0.32 | 0.32 | 99 | 1007.6 |
| 20260902215136 | 59 | 318 | 0.0 | 0.0 | 0.00 | 0.32 | 0.32 | 99 | 1007.7 |
| 20260902214631 | 59 | 306 | 0.0 | 0.0 | 0.00 | 0.32 | 0.32 | 99 | 1007.6 |
| 20260902214130 | 59 | 322 | 0.0 | 0.0 | 0.00 | 0.32 | 0.32 | 99 | 1007.6 |
| 20260902213626 | 59 | 315 | 0.0 | 0.0 | 0.00 | 0.32 | 0.32 | 99 | 1007.7 |
| 20260902213125 | 59 | 298 | 0.0 | 0.0 | 0.00 | 0.32 | 0.32 | 99 | 1007.5 |
| 20260902212621 | 59 | 305 | 0.0 | 0.0 | 0.00 | 0.32 | 0.32 | 99 | 1007.7 |
| 20260902212117 | 59 | 284 | 0.0 | 0.9 | 0.00 | 0.32 | 0.32 | 99 | 1007.6 |
| 20260902211613 | 59 | 316 | 0.0 | 0.0 | 0.00 | 0.32 | 0.32 | 99 | 1007.5 |
| 20260902211108 | 59 | 319 | 0.0 | 0.0 | 0.00 | 0.32 | 0.32 | 99 | 1007.5 |
| 20260902210607 | 59 | 316 | 0.0 | 0.0 | 0.00 | 0.32 | 0.32 | 99 | 1007.4 |
| 20260902205601 | 59 | 298 | 0.0 | 0.0 | 0.00 | 0.32 | 0.32 | 99 | 1007.5 |
| 20260902205057 | 59 | 73 | 0.0 | 0.0 | 0.07 | 0.32 | 0.32 | 99 | 1007.5 |
| 20260902204556 | 59 | 307 | 0.0 | 0.0 | 0.07 | 0.32 | 0.32 | 99 | 1007.3 |
| 20260902204051 | 59 | 321 | 0.0 | 0.0 | 0.00 | 0.31 | 0.31 | 99 | 1007.6 |
| 20260902203547 | 59 | 308 | 0.0 | 0.0 | 0.00 | 0.31 | 0.31 | 99 | 1007.2 |
| 20260902203046 | 59 | 314 | 0.0 | 0.0 | 0.00 | 0.31 | 0.31 | 99 | 1007.2 |